• In Netherlands
  • List of Countries
  • For 7 days
  • Water Temperature
  • Satellite Maps
  • Weather Map
  • Weather Widgets
  • user-avatar
    Login

    Hourly Weather Albany

    Today, 27 April, Thursday

    Time Temperature Precipitation Wind Pressure Humidity
    00:00 +14°C° 0 mm 1 mps 766 mmHg 92%
    01:00 +14°C° 0 mm 2 mps 766 mmHg 93%
    02:00 +14°C° 0 mm 1 mps 766 mmHg 94%
    03:00 +14°C° 0 mm 2 mps 766 mmHg 93%
    04:00 +14°C° 0 mm 2 mps 766 mmHg 92%
    05:00 +14°C° 0 mm 2 mps 766 mmHg 91%
    06:00 +14°C° 0 mm 2 mps 766 mmHg 86%
    07:00 +15°C° 0 mm 2 mps 766 mmHg 81%
    08:00 +16°C° 0 mm 2 mps 766 mmHg 76%
    09:00 +18°C° 0 mm 2 mps 766 mmHg 65%
    10:00 +22°C° 0 mm 1 mps 766 mmHg 54%
    11:00 +24°C° 0 mm 1 mps 766 mmHg 44%
    12:00 +25°C° 0 mm 1 mps 765 mmHg 42%
    13:00 +25°C° 0 mm 1 mps 765 mmHg 41%
    14:00 +25°C° 0 mm 1 mps 764 mmHg 40%
    15:00 +24°C° 0 mm 2 mps 764 mmHg 47%
    16:00 +23°C° 0 mm 2 mps 764 mmHg 54%
    17:00 +20°C° 0 mm 2 mps 764 mmHg 61%
    18:00 +19°C° 0 mm 2 mps 765 mmHg 69%
    19:00 +18°C° 0 mm 1 mps 765 mmHg 78%
    20:00 +16°C° 0 mm 1 mps 765 mmHg 86%
    21:00 +15°C° 0 mm 1 mps 765 mmHg 88%
    22:00 +15°C° 0 mm 1 mps 765 mmHg 89%
    23:00 +13°C° 0 mm 0 mps 765 mmHg 90%

    Tomorrow, 28 April, Friday

    Time Temperature Precipitation Wind Pressure Humidity
    00:00 +13°C° 0 mm 0 mps 765 mmHg 91%
    01:00 +13°C° 0 mm 0 mps 765 mmHg 91%
    02:00 +12°C° 0 mm 0 mps 765 mmHg 91%
    03:00 +13°C° 0 mm 1 mps 765 mmHg 91%
    04:00 +13°C° 0 mm 1 mps 765 mmHg 92%
    05:00 +13°C° 0 mm 1 mps 765 mmHg 92%
    06:00 +15°C° 0 mm 1 mps 766 mmHg 89%
    07:00 +16°C° 0 mm 1 mps 766 mmHg 86%
    08:00 +18°C° 0 mm 1 mps 766 mmHg 83%
    09:00 +20°C° 0 mm 1 mps 766 mmHg 74%
    10:00 +22°C° 0 mm 1 mps 766 mmHg 66%
    11:00 +24°C° 0 mm 1 mps 766 mmHg 58%
    12:00 +24°C° 0 mm 2 mps 765 mmHg 58%
    13:00 +24°C° 0 mm 2 mps 765 mmHg 58%
    14:00 +24°C° 0 mm 2 mps 764 mmHg 58%
    15:00 +22°C° 0 mm 3 mps 764 mmHg 64%
    16:00 +21°C° 0 mm 3 mps 765 mmHg 71%
    17:00 +19°C° 0 mm 3 mps 765 mmHg 77%
    18:00 +18°C° 0 mm 3 mps 765 mmHg 83%
    19:00 +17°C° 0 mm 2 mps 765 mmHg 88%
    20:00 +16°C° 0 mm 2 mps 766 mmHg 94%
    21:00 +16°C° 0 mm 2 mps 766 mmHg 94%
    22:00 +15°C° 0 mm 2 mps 766 mmHg 94%
    23:00 +15°C° 0 mm 1 mps 766 mmHg 95%

    Day after tomorrow, 29 April, Saturday

    Time Temperature Precipitation Wind Pressure Humidity
    00:00 +15°C° 0 mm 1 mps 766 mmHg 95%
    01:00 +14°C° 0 mm 1 mps 765 mmHg 95%
    02:00 +13°C° 0 mm 1 mps 765 mmHg 95%
    03:00 +13°C° 0 mm 1 mps 765 mmHg 96%
    04:00 +12°C° 0 mm 0 mps 765 mmHg 96%
    05:00 +11°C° 0 mm 0 mps 765 mmHg 96%
    06:00 +13°C° 0 mm 0 mps 765 mmHg 93%
    07:00 +14°C° 0 mm 0 mps 765 mmHg 90%
    08:00 +16°C° 0 mm 0 mps 766 mmHg 88%
    09:00 +20°C° 0 mm 1 mps 765 mmHg 77%
    10:00 +22°C° 0 mm 1 mps 765 mmHg 67%
    11:00 +23°C° 0 mm 2 mps 765 mmHg 57%
    12:00 +24°C° 0 mm 2 mps 765 mmHg 52%
    13:00 +25°C° 0 mm 1 mps 764 mmHg 48%
    14:00 +26°C° 0 mm 1 mps 763 mmHg 44%
    15:00 +25°C° 0 mm 1 mps 763 mmHg 52%
    16:00 +23°C° 0 mm 2 mps 763 mmHg 59%
    17:00 +20°C° 0 mm 2 mps 763 mmHg 67%
    18:00 +19°C° 0 mm 2 mps 764 mmHg 74%
    19:00 +18°C° 0 mm 2 mps 764 mmHg 81%
    20:00 +18°C° 0 mm 1 mps 764 mmHg 87%
    21:00 +16°C° 0 mm 1 mps 764 mmHg 88%
    22:00 +15°C° 0 mm 1 mps 764 mmHg 89%
    23:00 +15°C° 0 mm 1 mps 764 mmHg 90%

    30 April, Sunday

    Time Temperature Precipitation Wind Pressure Humidity
    00:00 +15°C° 0 mm 1 mps 764 mmHg 88%
    01:00 +15°C° 0 mm 2 mps 763 mmHg 86%
    02:00 +16°C° 0 mm 2 mps 763 mmHg 84%
    03:00 +16°C° 0 mm 2 mps 763 mmHg 86%
    04:00 +16°C° 0 mm 3 mps 763 mmHg 87%
    05:00 +16°C° 0 mm 3 mps 762 mmHg 89%
    06:00 +15°C° 0 mm 4 mps 763 mmHg 88%
    07:00 +17°C° 0 mm 4 mps 763 mmHg 87%
    08:00 +16°C° 0 mm 5 mps 763 mmHg 86%
    09:00 +17°C° 0 mm 5 mps 763 mmHg 81%
    10:00 +20°C° 0 mm 6 mps 763 mmHg 75%
    11:00 +21°C° 0 mm 6 mps 763 mmHg 69%
    12:00 +21°C° 0.1 mm 7 mps 763 mmHg 72%
    13:00 +20°C° 0.1 mm 7 mps 763 mmHg 75%
    14:00 +18°C° 0.1 mm 7 mps 763 mmHg 78%
    15:00 +19°C° 0 mm 6 mps 763 mmHg 76%
    16:00 +17°C° 0 mm 6 mps 764 mmHg 75%
    17:00 +16°C° 0 mm 6 mps 764 mmHg 73%
    18:00 +15°C° 0 mm 5 mps 765 mmHg 73%
    19:00 +14°C° 0 mm 5 mps 765 mmHg 73%
    20:00 +13°C° 0 mm 4 mps 766 mmHg 73%
    21:00 +13°C° 0 mm 4 mps 766 mmHg 74%
    22:00 +13°C° 0 mm 4 mps 766 mmHg 75%
    23:00 +12°C° 0 mm 3 mps 766 mmHg 76%

    1 May, Monday

    Time Temperature Precipitation Wind Pressure Humidity
    00:00 +12°C° 0 mm 3 mps 766 mmHg 76%
    01:00 +12°C° 0 mm 3 mps 766 mmHg 75%
    02:00 +12°C° 0 mm 3 mps 766 mmHg 75%
    03:00 +12°C° 0 mm 3 mps 766 mmHg 75%
    04:00 +12°C° 0 mm 3 mps 766 mmHg 75%
    05:00 +12°C° 0 mm 3 mps 766 mmHg 75%
    06:00 +12°C° 0 mm 3 mps 766 mmHg 73%
    07:00 +13°C° 0 mm 3 mps 767 mmHg 71%
    08:00 +13°C° 0 mm 3 mps 767 mmHg 68%
    09:00 +14°C° 0 mm 3 mps 767 mmHg 66%
    10:00 +16°C° 0 mm 3 mps 767 mmHg 64%
    11:00 +16°C° 0 mm 3 mps 767 mmHg 62%
    12:00 +17°C° 0 mm 4 mps 767 mmHg 60%
    13:00 +17°C° 0 mm 4 mps 766 mmHg 59%
    14:00 +17°C° 0 mm 4 mps 766 mmHg 57%
    15:00 +17°C° 0 mm 4 mps 766 mmHg 60%
    16:00 +15°C° 0 mm 4 mps 766 mmHg 63%
    17:00 +15°C° 0 mm 4 mps 767 mmHg 66%
    18:00 +14°C° 0 mm 4 mps 767 mmHg 69%
    19:00 +13°C° 0 mm 4 mps 767 mmHg 72%
    20:00 +13°C° 0 mm 4 mps 768 mmHg 75%
    21:00 +13°C° 0 mm 4 mps 768 mmHg 76%
    22:00 +13°C° 0 mm 4 mps 768 mmHg 77%
    23:00 +12°C° 0 mm 4 mps 768 mmHg 78%

    2 May, Tuesday

    Time Temperature Precipitation Wind Pressure Humidity
    00:00 +12°C° 0 mm 3 mps 767 mmHg 78%
    01:00 +12°C° 0 mm 3 mps 767 mmHg 77%
    02:00 +12°C° 0 mm 3 mps 767 mmHg 77%
    03:00 +12°C° 0 mm 3 mps 767 mmHg 78%
    04:00 +12°C° 0 mm 3 mps 767 mmHg 78%
    05:00 +12°C° 0 mm 3 mps 767 mmHg 78%
    06:00 +13°C° 0 mm 3 mps 767 mmHg 77%
    07:00 +13°C° 0 mm 3 mps 767 mmHg 76%
    08:00 +13°C° 0 mm 3 mps 767 mmHg 75%
    09:00 +15°C° 0 mm 4 mps 766 mmHg 69%
    10:00 +17°C° 0 mm 4 mps 766 mmHg 64%
    11:00 +18°C° 0 mm 4 mps 766 mmHg 59%
    12:00 +18°C° 0 mm 4 mps 766 mmHg 59%
    13:00 +18°C° 0 mm 4 mps 765 mmHg 59%
    14:00 +18°C° 0 mm 4 mps 765 mmHg 58%
    15:00 +18°C° 0 mm 4 mps 765 mmHg 61%
    16:00 +17°C° 0 mm 4 mps 765 mmHg 63%
    17:00 +17°C° 0 mm 4 mps 765 mmHg 66%
    18:00 +15°C° 0 mm 4 mps 765 mmHg 70%
    19:00 +14°C° 0 mm 5 mps 765 mmHg 74%
    20:00 +14°C° 0 mm 5 mps 765 mmHg 78%
    21:00 +13°C° 0 mm 5 mps 765 mmHg 78%
    22:00 +13°C° 0 mm 5 mps 765 mmHg 78%
    23:00 +13°C° 0 mm 5 mps 765 mmHg 77%
    Show more